SRMSAT (37841 NORAD) Tracking and Keplerian Element Data

This shows tracking and keplerian element data for the satellite.

Feedback or suggestion? Click here.




ElementValue
Catalog37841
NameSRMSAT
Epoch Orbit67121
Epoch Day286.92887921
Epoch Year2024
RAAN164.5865
Inclination19.9708
Eccentricity0.0011663
Argument of Perigee309.2041
Mean Anonmoly155.4188
Mean Motion14.11240935
Decay Rate9.54E-06
L11 37841U 11058D 24286.92887921 .00000954 00000+0 37623-3 0 9997
L22 37841 19.9708 164.5865 0011663 309.2041 155.4188 14.11240935671219



Live tracking and technical data element details for SRMSAT (NORAD 37841). SRMSAT can be tracked NOW for your location showing map with azimuth and elevation plus other details from your city location.







IsCatalogInMostPopularTable: catalog: 37841, numindb: 408
Update: records affected: 1



GetName: 37841 SRMSAT

Hit Count: updated at: Thu, 23 Jan 2025 18:05:26 GMT